Location: Grasslands National Park East Block
(49.0708°N, 106.5295°W)
Time: 11:45:32
(UTC-06:00)

Vanguard 1 Rocket - Visible Passes

Search period start: 21 October 2019 00:00
Search period end: 31 October 2019 00:00
Orbit: 650 x 4226 km, 34.3° (Epoch: 20 October)

Date Brightness Start Highest point End Pass type
(mag) Time Alt. Az. Time Alt. Az. Time Alt. Az.
22 Oct 12.1 19:03:42 10° W 19:15:25 15° SW 19:26:43 10° SSW visible
24 Oct 12.3 19:11:56 10° WSW 19:16:38 11° WSW 19:21:20 10° SW visible
30 Oct 10.8 07:07:08 10° SE 07:08:32 10° SE 07:10:02 10° ESE visible
